Weather History for Spirit of St Louis, MO

Change the Weather History Date:

Friday, August 16, 2013

  Actual Average Record
Temperature  
Mean Temperature 65 °F -  
Max Temperature 78 °F 84 °F 97 °F (2007)
Min Temperature 53 °F 62 °F 48 °F (2004)
Growing Degree Days 15 (Base 50)    
Moisture  
Dew Point 54 °F    
Average Humidity 72    
Maximum Humidity 96    
Minimum Humidity 44    
Precipitation  
Precipitation 0.00 in - - ()
Sea Level Pressure  
Sea Level Pressure 30.12 in    
Wind  
Wind Speed 3 mph (NE)    
Max Wind Speed 13 mph    
Max Gust Speed 20 mph    
Visibility 10 miles    
Events      
Averages and records for this station are not official NWS values.
T = Trace of Precipitation, MM = Missing Value Source: NWS Daily Summary

Daily Weather History Graph

Daily Weather History Graph

Search for Another Location

Airport:

Trip Planner

Search our weather history database for the weather conditions in past years. The results will help you decide how hot, cold, wet, or windy it might be!

Date:

Astronomy

Aug. 16, 2013 Rise Set
Actual Time 6:17 AM CDT 7:55 PM CDT
Civil Twilight 5:49 AM CDT 8:23 PM CDT
Nautical Twilight 5:15 AM CDT 8:57 PM CDT
Astronomical Twilight 4:39 AM CDT 9:33 PM CDT
Moon 4:13 PM CDT (8/16) 1:21 AM CDT (8/16)
Length of Visible Light 14h 33m
Length of Day
13h 37m
Waxing Gibbous, 75% of the Moon is Illuminated
Aug 16
Waxing Gibbous
Aug 20
Full
Aug 28
Last Quarter
Sep 5
New
Sep 12
First Quarter

Hourly Weather History & Observations

Time (CDT) Temp. Dew Point Humidity Pressure Visibility Wind Dir Wind Speed Gust Speed Precip Events Conditions
12:54 AM 57.9 °F 55.0 °F 90% 30.10 in 10.0 mi Calm Calm - N/A   Clear
1:54 AM 55.0 °F 54.0 °F 96% 30.09 in 10.0 mi WSW 3.5 mph - N/A   Clear
2:54 AM 55.0 °F 54.0 °F 96% 30.09 in 10.0 mi Calm Calm - N/A   Clear
3:54 AM 55.0 °F 54.0 °F 96% 30.10 in 10.0 mi Calm Calm - N/A   Clear
4:54 AM 55.0 °F 54.0 °F 96% 30.09 in 5.0 mi Calm Calm - N/A   Clear
5:16 AM 53.6 °F 51.8 °F 94% 30.11 in 2.0 mi Calm Calm - N/A   Clear
5:25 AM 53.6 °F 51.8 °F 94% 30.12 in 9.0 mi Calm Calm - N/A   Clear
5:54 AM 54.0 °F 52.0 °F 93% 30.12 in 10.0 mi Calm Calm - N/A   Overcast
6:54 AM 57.0 °F 55.0 °F 93% 30.13 in 10.0 mi Calm Calm - N/A   Overcast
7:54 AM 61.0 °F 57.9 °F 90% 30.13 in 10.0 mi Calm Calm - N/A   Partly Cloudy
8:54 AM 66.0 °F 57.9 °F 75% 30.14 in 10.0 mi Calm Calm - N/A   Scattered Clouds
9:54 AM 69.1 °F 55.9 °F 63% 30.14 in 10.0 mi Calm Calm - N/A   Mostly Cloudy
10:54 AM 72.0 °F 53.1 °F 51% 30.14 in 10.0 mi ENE 9.2 mph - N/A   Mostly Cloudy
11:54 AM 72.0 °F 54.0 °F 53% 30.14 in 10.0 mi NE 9.2 mph - N/A   Scattered Clouds
12:54 PM 73.9 °F 53.1 °F 48% 30.13 in 10.0 mi NE 10.4 mph - N/A   Scattered Clouds
1:54 PM 75.0 °F 53.1 °F 46% 30.13 in 10.0 mi NNE 10.4 mph - N/A   Mostly Cloudy
2:54 PM 77.0 °F 54.0 °F 45% 30.11 in 10.0 mi NE 11.5 mph 19.6 mph N/A   Mostly Cloudy
3:43 PM 77.0 °F 53.6 °F 44% 30.11 in 10.0 mi North 5.8 mph - N/A   Scattered Clouds
3:54 PM 75.9 °F 53.1 °F 45% 30.11 in 10.0 mi NE 12.7 mph 17.3 mph N/A   Mostly Cloudy
4:54 PM 75.0 °F 53.1 °F 46% 30.11 in 10.0 mi ENE 8.1 mph - N/A   Mostly Cloudy
5:54 PM 75.0 °F 54.0 °F 48% 30.11 in 10.0 mi ENE 6.9 mph - N/A   Mostly Cloudy
6:54 PM 73.9 °F 54.0 °F 50% 30.11 in 10.0 mi NE 5.8 mph - N/A   Mostly Cloudy
7:54 PM 70.0 °F 55.0 °F 59% 30.12 in 10.0 mi East 3.5 mph - N/A   Mostly Cloudy
8:54 PM 64.9 °F 59.0 °F 81% 30.12 in 10.0 mi Calm Calm - N/A   Mostly Cloudy
9:54 PM 62.1 °F 55.9 °F 80% 30.14 in 10.0 mi Calm Calm - N/A   Clear
10:54 PM 59.0 °F 55.9 °F 90% 30.14 in 10.0 mi Calm Calm - N/A   Clear
11:54 PM 59.0 °F 57.0 °F 93% 30.14 in 10.0 mi Calm Calm - N/A   Partly Cloudy